Location: B?lite?ti
(46.2833°N, 22.7333°E)
Time: 17:25:47
(UTC+00:00)

NOSS 2-1 (D) - Pass Details

Date: 24 January 2021
Orbit: 434 x 1768 km, 63.3° (Epoch: 24 February)

Event Time Altitude Azimuth Distance (km) Brightness Sun altitude
Rises 16:49:35 0° 210° (SSW) 2,482 7.3 -15.0°
Reaches altitude 10° 16:51:44 10° 206° (SSW) 1,557 6.1 -15.4°
Maximum altitude 16:55:00 61° 125° (SE) 497 2.8 -15.9°
Enters shadow 16:56:04 37° 62° (ENE) 696 3.3 -16.1°
